Date String (YYYY-MM-DD hh:mm:ss) UTC,Instrument flags,absolute air pressure of the measurement (hPa),sample flow rate (lpm),inlet stack bypass flow (lpm),air temperature of the measurement (°C),ambient temperature measured by the external sensor (°C),aerosol sample conditioner tube jacket temperature (°C),OPC LED temperature (°C),internal box temperature (°C),relative humidity of the measurement (%),span deviation,mass concentration of particles derived from Lorenz-Mie calculation of OPC scattering (μg/m³),mass concentration of particles derived from Lorenz-Mie calculation of OPC scattering (μg/m³),mass concentration of particles derived from Lorenz-Mie calculation of OPC scattering (μg/m³)
DateTimeUTC,F1_M11,P_M11,Q1_M11,Q2_M11,T1_M11,T2_M11,T3_M11,T4_M11,T5_M11,U1_M11,ZSPAN_M11,X0_M11,X2_M11,X1_M11
2024-05-16 18:00:00,SystemResetWarning,0826.5,5.00,000.00,024.4,023.8,000.0,032.4,026.2,019.8,0000.0,0004.97,0002.03,0001.56
2024-05-16 18:01:00,SystemResetWarning,0826.4,4.99,000.00,024.4,023.9,000.0,032.4,026.3,019.2,0000.0,0005.12,0002.05,0001.55
2024-05-16 18:02:00,SystemResetWarning,0826.4,5.00,000.00,024.4,023.6,000.0,032.5,026.1,019.4,0000.0,0005.21,0002.08,0001.55
2024-05-16 18:03:00,SystemResetWarning,0826.4,5.00,000.00,024.2,021.8,000.0,032.6,025.0,020.3,0000.0,0005.21,0002.08,0001.55
2024-05-16 18:04:00,SystemResetWarning,0826.4,5.01,000.00,023.8,021.0,000.0,032.6,024.6,019.4,0000.0,0005.17,0002.08,0001.55
2024-05-16 18:05:00,SystemResetWarning,0826.4,5.02,000.00,023.7,021.4,000.0,032.5,024.8,020.4,0000.0,0005.05,0002.10,0001.53
2024-05-16 18:06:00,SystemResetWarning,0826.4,4.98,000.00,023.7,021.8,000.0,032.4,025.0,021.7,0000.0,0005.16,0002.13,0001.53
2024-05-16 18:07:00,SystemResetWarning,0826.4,4.99,000.00,023.7,022.1,000.0,032.3,025.2,020.8,0000.0,0005.04,0002.10,0001.53
2024-05-16 18:08:00,SystemResetWarning,0826.4,5.01,000.00,023.8,022.5,000.0,032.2,025.4,019.8,0000.0,0005.14,0002.15,0001.56
2024-05-16 18:09:00,SystemResetWarning,0826.4,5.01,000.00,023.9,022.8,000.0,032.2,025.5,019.6,0000.0,0003.94,0002.17,0001.58
2024-05-16 18:10:00,SystemResetWarning,0826.4,5.00,000.00,023.9,023.0,000.0,032.2,025.7,020.5,0000.0,0003.65,0002.17,0001.57
2024-05-16 18:11:00,SystemResetWarning,0826.4,5.00,000.00,024.0,023.2,000.0,032.2,025.8,020.1,0000.0,0003.61,0002.20,0001.57
2024-05-16 18:12:00,SystemResetWarning,0826.4,5.00,000.00,024.1,023.4,000.0,032.2,025.9,019.3,0000.0,0003.70,0002.25,0001.58
2024-05-16 18:13:00,SystemResetWarning,0826.4,4.99,000.00,024.1,023.6,000.0,032.2,026.0,019.5,0000.0,0003.75,0002.29,0001.59
2024-05-16 18:14:00,SystemResetWarning,0826.4,5.00,000.00,024.2,023.7,000.0,032.2,026.1,019.3,0000.0,0003.65,0002.25,0001.59
2024-05-16 18:15:00,SystemResetWarning,0826.4,5.00,000.00,024.3,023.8,000.0,032.3,026.2,018.6,0000.0,0003.67,0002.27,0001.61
2024-05-16 18:16:00,SystemResetWarning,0826.4,5.01,000.00,024.4,023.9,000.0,032.3,026.3,018.3,0000.0,0003.71,0002.29,0001.62
2024-05-16 18:17:00,SystemResetWarning,0826.4,4.99,000.00,024.4,023.5,000.0,032.4,026.0,018.9,0000.0,0003.53,0002.23,0001.61
2024-05-16 18:18:00,SystemResetWarning,0826.3,4.99,000.00,024.1,021.6,000.0,032.5,024.9,019.2,0000.0,0003.57,0002.23,0001.61
2024-05-16 18:19:00,SystemResetWarning,0826.2,5.02,000.00,023.7,020.9,000.0,032.5,024.5,019.7,0000.0,0003.53,0002.21,0001.62
2024-05-16 18:20:00,SystemResetWarning,0826.2,5.00,000.00,023.6,021.4,000.0,032.4,024.7,019.6,0000.0,0003.64,0002.23,0001.63
2024-05-16 18:21:00,SystemResetWarning,0826.3,5.00,000.00,023.6,021.7,000.0,032.3,024.9,019.9,0000.0,0003.87,0002.25,0001.64
2024-05-16 18:22:00,SystemResetWarning,0826.3,5.00,000.00,023.7,022.1,000.0,032.2,025.1,019.9,0000.0,0003.70,0002.21,0001.64
2024-05-16 18:23:00,SystemResetWarning,0826.3,5.01,000.00,023.7,022.4,000.0,032.2,025.3,018.8,0000.0,0003.66,0002.20,0001.65
2024-05-16 18:24:00,SystemResetWarning,0826.2,5.00,000.00,023.8,022.7,000.0,032.1,025.5,018.7,0000.0,0003.76,0002.17,0001.64
2024-05-16 18:25:00,SystemResetWarning,0826.3,5.00,000.00,023.9,023.0,000.0,032.1,025.6,019.8,0000.0,0003.99,0002.20,0001.64
2024-05-16 18:26:00,SystemResetWarning,0826.2,5.00,000.00,024.0,023.2,000.0,032.1,025.7,019.3,0000.0,0004.83,0002.22,0001.63
2024-05-16 18:27:00,SystemResetWarning,0826.2,5.00,000.00,024.0,023.4,000.0,032.1,025.9,020.1,0000.0,0004.70,0002.16,0001.62
2024-05-16 18:28:00,SystemResetWarning,0826.2,5.00,000.00,024.1,023.6,000.0,032.1,026.0,019.4,0000.0,0004.69,0002.16,0001.62
2024-05-16 18:29:00,SystemResetWarning,0826.2,4.99,000.00,024.2,023.7,000.0,032.2,026.1,018.8,0000.0,0004.76,0002.20,0001.62
2024-05-16 18:30:00,SystemResetWarning,0826.2,4.99,000.00,024.2,023.8,000.0,032.2,026.2,018.7,0000.0,0004.75,0002.18,0001.62
2024-05-16 18:31:00,SystemResetWarning,0826.3,4.99,000.00,024.3,023.8,000.0,032.3,026.2,018.7,0000.0,0005.89,0002.16,0001.63
2024-05-16 18:32:00,SystemResetWarning,0826.2,5.00,000.00,024.2,022.4,000.0,032.4,025.4,018.3,0000.0,0006.04,0002.17,0001.63
2024-05-16 18:33:00,SystemResetWarning,0826.1,5.00,000.00,023.8,020.8,000.0,032.4,024.5,018.9,0000.0,0006.60,0002.25,0001.65
2024-05-16 18:34:00,SystemResetWarning,0826.1,5.02,000.00,023.6,021.1,000.0,032.4,024.6,019.4,0000.0,0007.18,0002.29,0001.66
2024-05-16 18:35:00,SystemResetWarning,0826.1,5.00,000.00,023.6,021.5,000.0,032.2,024.8,019.8,0000.0,0007.08,0002.32,0001.67
2024-05-16 18:36:00,SystemResetWarning,0826.1,4.99,000.00,023.6,021.9,000.0,032.1,025.0,019.4,0000.0,0007.29,0002.35,0001.68
2024-05-16 18:37:00,SystemResetWarning,0826.1,4.99,000.00,023.7,022.2,000.0,032.1,025.2,019.0,0000.0,0006.77,0002.32,0001.68
2024-05-16 18:38:00,SystemResetWarning,0826.0,5.02,000.00,023.7,022.5,000.0,032.0,025.4,019.8,0000.0,0006.75,0002.35,0001.69
2024-05-16 18:39:00,SystemResetWarning,0826.0,5.01,000.00,023.8,022.8,000.0,032.0,025.5,019.9,0000.0,0006.81,0002.37,0001.70
2024-05-16 18:40:00,SystemResetWarning,0826.0,5.00,000.00,023.9,023.1,000.0,032.0,025.6,019.1,0000.0,0006.80,0002.37,0001.72
2024-05-16 18:41:00,SystemResetWarning,0826.0,5.00,000.00,024.0,023.3,000.0,032.0,025.7,019.2,0000.0,0006.90,0002.41,0001.72
2024-05-16 18:42:00,SystemResetWarning,0826.0,5.00,000.00,024.0,023.4,000.0,032.1,025.9,019.2,0000.0,0005.93,0002.43,0001.71
2024-05-16 18:43:00,SystemResetWarning,0826.0,5.00,000.00,024.1,023.6,000.0,032.1,026.0,019.3,0000.0,0006.01,0002.47,0001.71
2024-05-16 18:44:00,SystemResetWarning,0826.0,4.99,000.00,024.2,023.7,000.0,032.1,026.1,020.4,0000.0,0007.05,0002.44,0001.70
2024-05-16 18:45:00,SystemResetWarning,0826.0,5.00,000.00,024.2,023.9,000.0,032.2,026.2,019.1,0000.0,0007.64,0002.41,0001.70
2024-05-16 18:46:00,SystemResetWarning,0826.0,5.00,000.00,024.2,023.2,000.0,032.3,025.7,019.3,0000.0,0007.94,0002.43,0001.70
2024-05-16 18:47:00,SystemResetWarning,0825.9,5.00,000.00,023.9,021.9,000.0,032.3,025.0,019.8,0000.0,0007.83,0002.41,0001.70
2024-05-16 18:48:00,SystemResetWarning,0825.9,5.02,000.00,023.8,022.0,000.0,032.3,025.1,019.5,0000.0,0007.75,0002.44,0001.70
2024-05-16 18:49:00,SystemResetWarning,0825.9,5.00,000.00,023.8,022.3,000.0,032.2,025.2,020.3,0000.0,0008.10,0002.48,0001.71
2024-05-16 18:50:00,SystemResetWarning,0825.9,5.00,000.00,023.9,022.6,000.0,032.2,025.4,019.3,0000.0,0008.15,0002.51,0001.70
2024-05-16 18:51:00,SystemResetWarning,0825.9,5.00,000.00,023.9,022.9,000.0,032.2,025.6,019.9,0000.0,0008.37,0002.56,0001.69
2024-05-16 18:52:00,SystemResetWarning,0825.9,5.01,000.00,024.0,023.1,000.0,032.2,025.7,019.6,0000.0,0008.48,0002.55,0001.69
2024-05-16 18:53:00,SystemResetWarning,0825.9,4.99,000.00,024.1,023.3,000.0,032.2,025.9,020.4,0000.0,0008.47,0002.56,0001.70
2024-05-16 18:54:00,SystemResetWarning,0825.9,4.99,000.00,024.1,023.5,000.0,032.2,026.0,019.8,0000.0,0008.70,0002.59,0001.71
2024-05-16 18:55:00,SystemResetWarning,0825.9,5.00,000.00,024.2,023.7,000.0,032.2,026.1,018.7,0000.0,0008.27,0002.61,0001.70
2024-05-16 18:56:00,SystemResetWarning,0825.9,5.01,000.00,024.3,023.8,000.0,032.2,026.2,018.6,0000.0,0007.55,0002.63,0001.70
2024-05-16 18:57:00,SystemResetWarning,0825.9,5.00,000.00,024.3,023.4,000.0,032.3,025.9,019.1,0000.0,0007.36,0002.59,0001.69
2024-05-16 18:58:00,SystemResetWarning,0825.9,4.99,000.00,024.0,021.5,000.0,032.4,024.9,019.7,0000.0,0008.72,0002.56,0001.68
2024-05-16 18:59:00,SystemResetWarning,0825.8,5.02,000.00,023.7,020.8,000.0,032.4,024.5,020.3,0000.0,0009.33,0002.57,0001.68
